Theta_e
305 306 306 306 307 305 304 301 294 304 308 295 290 287 289 292 292 294 292 292 289 288 288 287 286 285 288 294 294 291 297 296 292 296 301 303 302 300 301 295 294 297 297 296
305 306 306 306 306 305 302 297 296 307 304 288 290 290 289 291 291 291 291 290 291 292 289 285 288 289 294 294 293 291 294 294 291 293 298 301 299 301 302 303 303 297 293 294
305 306 306 306 305 305 303 298 291 298 300 295 287 287 288 288 293 291 292 291 293 291 289 291 288 289 293 295 294 295 296 294 294 291 294 298 296 298 301 301 296 297 296 298
305 306 306 306 305 305 303 299 293 294 290 289 287 289 289 288 287 291 293 290 290 288 285 288 287 291 291 294 296 295 296 291 295 296 296 296 298 297 298 298 299 296 298 298
305 306 306 306 306 305 303 295 292 295 292 291 288 289 289 287 288 288 288 289 290 290 287 288 288 290 290 288 292 293 296 290 295 292 296 296 295 298 299 299 300 299 300 299
306 306 306 306 306 306 299 299 302 293 291 289 287 288 289 288 289 292 292 291 289 290 291 295 296 296 296 295 293 293 292 292 292 289 295 294 292 297 299 300 301 301 297 303
306 306 306 306 307 306 304 301 298 290 287 290 289 289 290 288 289 287 292 293 291 295 299 298 299 298 296 296 295 296 292 291 292 291 294 286 299 305 303 301 302 303 303 305
305 306 306 307 307 307 304 304 297 292 286 289 289 290 289 291 292 290 292 294 296 299 295 290 289 290 291 292 294 294 296 292 290 289 290 295 299 302 302 300 301 306 306 306
305 305 306 307 307 307 306 305 304 296 288 290 291 289 290 288 289 291 292 298 301 297 292 289 284 284 285 286 290 296 295 295 289 291 288 287 298 303 306 306 299 306 307 308
305 305 305 305 307 308 307 306 306 297 289 293 294 290 289 292 292 288 292 294 293 295 289 286 286 287 289 284 285 288 288 289 286 287 291 295 302 305 307 295 298 307 308 309
304 305 305 305 307 308 308 305 308 300 293 294 297 296 292 291 291 287 293 293 293 292 286 287 287 286 290 289 288 289 289 286 286 287 289 289 304 305 300 303 308 308 309 311
304 304 305 305 306 307 308 303 309 306 296 296 301 300 300 297 298 293 293 293 292 292 289 292 289 288 290 289 287 294 289 293 292 293 292 301 303 305 307 308 307 308 309 311
304 304 305 305 305 306 307 305 305 303 295 297 300 298 301 303 301 301 291 294 296 294 299 292 290 287 290 287 288 290 295 299 294 297 300 301 300 304 306 307 308 310 311 313
304 305 305 305 304 305 306 304 306 303 297 289 298 305 301 305 304 300 299 297 298 300 297 294 290 289 295 290 289 289 291 293 294 297 300 303 301 302 304 306 308 309 312 312
304 305 306 305 304 305 306 305 306 306 297 293 296 302 305 304 304 301 298 297 295 296 293 293 291 295 295 298 294 292 297 295 292 291 298 299 300 302 305 305 304 308 310 311
304 305 305 305 305 306 305 301 307 308 302 293 289 303 303 304 305 304 299 299 298 298 295 294 297 300 297 291 292 296 298 299 300 298 303 303 304 305 306 305 304 307 310 312
304 305 304 305 307 307 304 301 305 305 303 294 291 297 303 304 305 303 300 302 300 298 298 295 297 296 299 292 290 297 299 298 299 301 303 302 304 304 305 304 306 307 312 313
304 304 305 306 305 305 305 308 304 305 301 298 290 295 299 305 301 298 306 299 299 297 297 298 293 295 295 291 294 295 296 297 298 301 302 303 305 305 304 306 306 307 310 311
303 303 305 307 306 306 303 306 305 306 302 292 291 289 287 304 303 302 299 303 294 302 294 292 293 290 289 290 292 293 294 294 295 298 299 302 303 304 304 305 305 306 309 310
303 304 304 302 305 304 305 303 298 297 299 299 293 299 292 299 300 299 297 300 295 292 297 298 292 291 296 299 300 299 299 300 299 296 297 300 303 304 305 305 306 306 307 309
303 299 298 301 304 303 301 295 294 295 292 296 297 299 296 301 293 292 296 292 297 290 294 291 292 290 297 301 300 301 301 301 301 302 302 302 304 303 305 306 306 307 308 309
300 298 298 298 297 300 295 295 297 295 294 299 298 299 300 299 299 293 295 289 294 289 298 292 289 296 300 299 300 301 301 301 301 302 303 304 306 305 305 307 307 308 309 310
303 295 292 295 298 288 290 287 292 293 297 299 300 296 301 299 299 296 294 288 289 297 292 291 295 299 301 301 302 302 303 302 302 302 304 304 304 305 307 307 309 310 311 312
296 292 288 293 291 294 296 296 297 300 299 299 299 299 298 299 294 294 287 293 293 287 286 288 296 300 301 302 303 302 301 302 302 303 303 303 304 306 308 310 312 312 311 311
293 295 288 293 298 300 301 301 301 301 304 301 299 300 299 296 293 293 290 287 284 287 289 296 300 302 302 302 303 303 303 302 302 303 305 305 307 308 310 312 313 313 312 312
294 295 295 299 297 296 298 299 299 303 302 303 301 296 293 292 294 287 285 285 285 288 293 301 303 303 303 303 304 305 305 305 304 303 304 306 306 305 307 311 312 312 313 313
294 294 300 298 298 297 297 299 299 304 300 295 297 289 289 296 291 287 291 287 290 298 302 305 304 303 303 304 304 304 305 306 305 305 305 304 306 305 304 304 306 308 312 314
Wind_Speed
20 18 18 20 20 21 10 4 3 5 4 2 1 5 9 9 11 9 9 9 10 12 12 12 5 1 3 8 8 8 4 8 13 25 24 24 27 21 26 13 20 11 5 3
20 17 17 19 18 13 8 6 4 2 7 4 5 6 10 4 12 11 7 11 6 11 12 7 4 2 7 10 5 5 4 10 11 15 22 21 27 23 26 17 15 19 12 3
18 16 16 17 16 14 7 4 4 1 2 2 8 11 7 9 8 8 13 11 12 11 11 8 7 9 8 6 6 7 7 9 17 5 20 14 25 25 26 22 11 13 14 13
18 16 16 17 17 15 7 3 2 4 4 4 8 13 9 13 9 7 10 4 6 11 8 16 7 8 11 5 6 7 5 13 18 13 6 7 12 24 23 26 20 16 12 18
18 16 16 16 16 15 4 3 4 4 10 8 9 5 8 10 11 7 10 10 15 15 14 15 18 15 9 2 4 6 5 6 13 17 13 8 7 9 24 21 23 19 14 15
18 17 17 17 14 8 1 1 2 3 7 5 7 6 8 13 15 11 8 13 16 16 12 13 16 15 14 14 13 12 6 5 9 18 16 6 11 13 17 21 20 20 21 18
17 17 16 16 14 6 2 0 2 3 6 8 9 13 15 15 15 14 17 15 9 7 18 21 20 19 19 19 18 14 10 7 7 11 14 14 10 8 13 14 19 21 18 15
19 17 17 15 13 10 4 2 2 2 7 9 15 11 13 15 12 13 14 10 4 14 10 8 8 6 10 16 18 15 13 7 5 6 11 10 8 9 4 9 10 7 9 16
20 19 17 15 13 12 6 4 4 2 4 3 16 16 13 10 11 9 6 11 11 5 4 6 6 4 2 2 2 13 12 10 5 6 14 14 11 8 6 5 9 9 7 6
21 20 18 17 13 12 5 4 7 3 5 10 4 4 9 5 7 6 12 8 5 1 3 3 5 3 3 3 3 13 10 6 7 7 8 8 11 9 3 12 7 9 8 7
21 20 19 17 14 11 5 5 8 4 5 12 15 13 10 3 5 4 8 8 0 3 3 4 5 5 5 5 3 7 8 7 5 4 6 5 15 4 5 9 7 8 10 9
22 21 19 18 14 11 6 5 5 6 5 9 16 16 11 13 18 9 3 5 5 2 3 3 3 3 3 4 1 5 4 1 2 3 4 4 8 8 8 7 8 10 11 12
23 23 21 19 16 11 7 6 2 3 4 8 5 0 7 6 3 3 3 2 3 3 6 2 2 4 3 4 3 5 2 6 3 8 4 6 4 8 10 11 11 12 12 13
24 23 22 19 16 11 8 6 4 3 3 4 2 6 4 4 9 8 10 8 5 8 6 3 3 4 3 2 2 3 3 6 5 7 4 4 7 9 14 14 13 15 14 14
26 26 25 20 16 10 6 5 5 6 2 5 8 17 3 5 6 10 10 8 6 4 3 3 3 3 4 2 2 1 1 5 4 3 10 7 8 10 15 12 16 18 15 17
28 28 28 23 12 9 5 5 5 5 4 2 4 6 6 4 4 4 11 5 5 3 3 3 3 5 5 4 2 5 6 7 10 10 15 15 15 15 11 14 17 18 16 16
27 27 27 18 6 8 3 5 5 8 5 2 5 4 3 3 1 4 2 5 3 4 3 3 6 5 8 3 4 11 10 11 14 16 17 15 8 12 14 15 17 18 15 12
27 25 18 4 10 3 4 4 8 9 3 2 4 5 4 3 3 1 1 3 3 2 4 2 3 6 4 3 13 17 17 16 15 14 15 18 18 17 15 15 14 15 13 12
28 20 4 5 6 3 4 2 8 3 3 2 2 3 4 4 1 2 2 1 2 0 1 0 2 2 2 6 13 13 15 11 16 17 16 18 18 17 15 15 13 12 13 13
24 5 5 4 4 6 6 5 4 3 3 3 4 2 4 4 4 1 3 1 2 2 3 1 2 1 9 6 11 8 13 14 13 14 14 13 15 14 15 15 13 12 12 13
5 5 3 6 3 4 4 3 4 4 4 4 5 5 5 3 3 3 1 3 1 3 4 2 1 4 10 14 14 13 12 14 15 12 13 15 16 14 15 13 11 11 12 11
9 9 7 4 4 4 5 4 4 5 2 5 3 1 3 1 1 3 2 3 3 2 2 3 4 6 13 15 16 16 13 14 14 13 13 13 14 10 12 11 10 10 11 11
2 2 4 3 3 3 6 5 4 3 4 4 2 3 1 3 4 3 2 2 2 4 3 4 3 10 12 15 15 17 16 16 16 14 10 5 7 7 8 8 8 8 10 10
3 3 5 5 5 6 4 5 2 2 3 3 4 2 3 3 3 1 3 0 1 2 1 2 6 11 13 14 15 15 16 16 17 13 9 5 5 6 6 7 8 8 7 8
5 4 6 7 7 4 4 4 3 4 3 3 3 2 3 3 3 1 3 3 3 2 2 3 5 8 11 14 14 16 16 14 13 15 13 13 11 10 8 7 7 7 8 8
4 7 6 5 5 7 6 8 7 3 3 2 3 2 4 3 2 3 4 2 3 3 3 4 4 6 7 11 14 15 14 13 11 10 13 14 13 11 11 10 10 10 9 10
6 7 8 10 8 7 6 4 6 4 5 5 2 4 2 3 3 2 3 4 3 5 3 2 3 4 6 8 11 13 14 14 14 14 10 12 12 12 14 15 14 13 13 12
Wind_Direction
347 344 345 340 341 339 315 303 316 39 285 293 181 318 334 330 317 325 291 293 288 287 294 295 270 265 209 204 301 302 286 290 273 198 205 217 201 203 199 199 196 250 220 228
347 346 346 339 339 356 312 341 298 109 283 341 335 327 299 284 309 338 331 305 318 305 298 290 301 338 196 194 228 307 0 232 225 211 197 206 195 207 194 213 202 206 223 224
347 345 341 333 338 343 296 327 327 351 356 351 332 331 305 326 328 314 316 300 296 332 314 293 287 310 44 260 257 257 250 253 256 191 195 191 202 203 192 207 207 185 212 207
347 346 337 329 334 336 287 13 23 335 308 315 320 295 294 303 355 323 309 279 311 339 314 316 299 356 312 317 193 249 279 246 227 260 316 301 280 205 205 208 217 228 191 229
342 339 334 326 336 325 283 343 339 324 291 281 298 289 304 317 343 313 305 305 327 316 301 295 295 310 310 327 303 296 278 303 269 251 237 240 245 252 206 207 211 228 233 236
338 334 334 326 336 328 332 318 251 271 290 288 307 301 322 313 317 291 287 313 310 299 321 322 303 292 289 276 287 289 292 306 242 233 213 229 230 209 223 210 213 217 222 232
337 337 333 328 331 327 284 240 290 265 285 319 307 304 297 303 304 287 291 291 292 298 322 306 268 249 250 253 253 250 261 304 270 245 177 218 87 37 205 218 213 222 232 235
336 336 335 330 330 323 269 173 235 264 282 314 294 327 319 308 300 289 286 311 279 297 301 283 274 209 234 234 230 228 227 259 278 222 205 187 104 36 346 202 155 10 308 257
334 335 335 332 329 322 282 212 204 257 297 269 325 304 301 298 313 306 287 330 330 337 277 261 271 313 333 204 297 195 208 227 299 256 213 201 64 5 315 279 182 23 342 319
333 334 335 333 329 317 297 249 189 235 264 269 303 292 305 300 296 290 301 340 321 103 296 282 283 280 307 311 258 169 180 213 232 267 243 99 9 344 167 210 70 348 338 328
329 330 331 331 325 319 295 278 179 215 255 283 280 287 286 272 259 270 325 303 106 298 288 308 354 344 327 294 96 175 177 193 181 233 250 171 3 58 332 18 347 342 340 333
323 325 326 327 322 313 299 264 169 211 241 273 307 282 267 260 260 263 274 300 315 288 293 322 305 293 280 299 198 180 236 27 332 310 37 66 15 54 42 1 343 352 336 334
322 320 323 320 319 303 273 268 179 196 263 282 257 7 209 226 239 277 254 233 282 237 301 314 290 301 332 327 28 306 170 21 305 286 68 17 103 29 15 357 340 341 340 334
319 318 317 319 316 296 253 227 214 234 293 289 337 172 299 223 184 190 205 251 296 301 292 292 268 270 198 306 287 300 333 321 303 293 30 50 162 1 351 338 337 334 339 336
319 321 319 319 312 279 234 232 234 216 268 315 315 306 217 259 217 217 204 220 234 257 263 264 259 321 312 235 201 354 248 346 346 330 329 328 334 323 332 326 338 327 338 330
319 324 321 316 302 190 190 205 177 205 177 274 288 348 266 332 338 55 176 216 217 264 266 271 277 273 332 309 283 86 11 349 332 314 315 303 296 290 314 324 324 319 322 321
319 324 321 309 219 191 274 13 63 138 162 237 277 273 124 322 273 128 168 217 268 283 309 260 336 351 319 278 341 2 343 322 311 306 306 299 334 319 319 308 308 307 312 318
320 327 324 78 137 259 199 103 143 156 230 217 285 288 282 28 344 25 239 192 216 236 312 15 336 311 310 340 339 324 318 318 306 305 325 305 299 292 297 300 308 309 311 333
320 323 197 217 225 205 52 158 159 226 297 288 248 298 301 340 23 265 229 273 254 148 287 216 280 324 337 289 304 293 296 287 289 289 286 288 286 286 289 288 303 310 316 324
312 261 232 200 57 343 151 196 176 196 200 225 252 329 284 318 318 272 281 211 263 260 95 238 247 231 255 308 319 325 318 307 295 272 286 290 293 296 296 293 297 296 302 312
341 335 319 347 313 215 209 198 219 159 217 206 229 271 302 101 292 313 20 302 16 263 79 341 305 353 353 350 349 344 312 307 295 302 275 272 282 294 291 285 292 295 296 306
313 298 310 299 252 210 232 201 162 218 265 166 243 2 232 116 241 266 279 284 258 339 30 249 343 8 354 348 340 334 323 313 318 312 298 267 256 277 282 281 286 290 295 301
242 190 233 229 205 227 217 201 180 212 186 167 236 296 123 175 231 254 288 271 275 312 267 346 323 350 354 351 344 339 345 346 334 328 329 261 273 287 274 278 279 284 298 299
264 262 266 231 204 231 208 202 216 106 248 265 306 288 225 189 216 220 257 257 286 261 292 265 359 346 349 349 349 348 350 353 349 353 28 13 332 331 318 312 315 304 303 304
252 207 242 230 243 252 229 232 220 196 245 248 228 188 232 179 249 198 264 232 235 230 256 309 341 354 344 344 350 350 357 359 5 360 21 26 11 359 347 354 335 330 327 322
238 236 255 232 254 248 216 226 238 186 199 196 243 241 217 191 226 209 220 244 232 218 223 285 329 344 352 347 341 354 357 355 23 18 10 19 20 14 3 3 9 349 344 325
226 238 232 263 272 277 284 263 246 151 211 249 222 241 240 114 228 229 210 218 220 233 268 302 329 318 346 344 343 348 354 4 13 20 24 25 18 22 14 5 357 350 348 332